Albert Lea, MN

10:38 PM CDT on May 28, 2017 (GMT -0500)
Albert Lea Municipal

Weather History for KAEL - February, 2013

Change the Weather History Date:

Saturday, February 23, 2013

  Actual Average Record
Temperature  
Mean Temperature 14 °F -  
Max Temperature 24 °F 29 °F 55 °F (2002)
Min Temperature 3 °F 16 °F -13 °F (2015)
Degree Days  
Heating Degree Days 52    
Moisture  
Dew Point 13 °F    
Average Humidity 85    
Maximum Humidity 100    
Minimum Humidity 63    
Precipitation  
Precipitation 0.00 in - - ()
Sea Level Pressure  
Sea Level Pressure 29.87 in    
Wind  
Wind Speed 5 mph (West)    
Max Wind Speed 9 mph    
Max Gust Speed -    
Visibility 10 miles    
Events Snow    
Averages and records for this station are not official NWS values.
T = Trace of Precipitation, MM = Missing Value Source: NWS Daily Summary

Daily Weather History Graph

Daily Weather History Graph

Search for Another Location

Airport or City:

Trip Planner

Search our weather history database for the weather conditions in past years. The results will help you decide how hot, cold, wet, or windy it might be!

Date:

Astronomy

Feb. 23, 2013 Rise Set
Actual Time 6:59 AM CST 5:54 PM CST
Civil Twilight 6:30 AM CST 6:23 PM CST
Nautical Twilight 5:57 AM CST 6:57 PM CST
Astronomical Twilight 5:23 AM CST 7:30 PM CST
Moon 4:03 PM CST (2/23) 5:24 AM CST (2/23)
Length of Visible Light 11h 53m
Length of Day
10h 55m
Waxing Gibbous, 95% of the Moon is Illuminated
Feb 23
Waxing Gibbous
Feb 25
Full
Mar 4
Last Quarter
Mar 11
New
Mar 19
First Quarter

Hourly Weather History & Observations

Time (CST) Temp. Windchill Dew Point Humidity Pressure Visibility Wind Dir Wind Speed Gust Speed Precip Events Conditions
12:14 AM 17.6 °F 10.7 °F 17.6 °F 100% 29.87 in 10.0 mi West 4.6 mph - N/A   Overcast
12:35 AM 17.6 °F 9.3 °F 17.6 °F 100% 29.87 in 7.0 mi WSW 5.8 mph - N/A   Overcast
12:54 AM 17.6 °F 8.2 °F 15.8 °F 93% 29.87 in 7.0 mi WSW 6.9 mph - N/A Snow Light Snow
1:14 AM 17.6 °F 6.4 °F 17.6 °F 100% 29.87 in 7.0 mi WSW 9.2 mph - N/A Snow Light Snow
1:35 AM 17.6 °F 6.4 °F 15.8 °F 93% 29.87 in 5.0 mi WSW 9.2 mph - N/A Snow Light Snow
1:54 AM 17.6 °F 7.3 °F 15.8 °F 93% 29.87 in 5.0 mi WSW 8.1 mph - N/A Snow Light Snow
2:15 AM 17.6 °F 8.2 °F 15.8 °F 93% 29.86 in 7.0 mi West 6.9 mph - N/A Snow Light Snow
2:34 AM 17.6 °F 8.2 °F 15.8 °F 93% 29.86 in 7.0 mi West 6.9 mph - N/A   Overcast
2:54 AM 17.6 °F 6.4 °F 15.8 °F 93% 29.86 in 7.0 mi West 9.2 mph - N/A Snow Light Snow
3:15 AM 17.6 °F 8.2 °F 15.8 °F 93% 29.86 in 7.0 mi West 6.9 mph - N/A Snow Light Snow
3:34 AM 17.6 °F 8.2 °F 15.8 °F 93% 29.86 in 10.0 mi West 6.9 mph - N/A   Overcast
3:54 AM 17.6 °F 7.3 °F 17.6 °F 100% 29.85 in 10.0 mi West 8.1 mph - N/A   Overcast
4:14 AM 17.6 °F 10.7 °F 15.8 °F 93% 29.85 in 10.0 mi West 4.6 mph - N/A   Overcast
4:34 AM 17.6 °F 9.3 °F 15.8 °F 93% 29.85 in 10.0 mi West 5.8 mph - N/A   Overcast
4:55 AM 17.6 °F 9.3 °F 15.8 °F 93% 29.85 in 10.0 mi West 5.8 mph - N/A   Overcast
5:14 AM 17.6 °F 9.3 °F 15.8 °F 93% 29.85 in 10.0 mi West 5.8 mph - N/A   Overcast
5:34 AM 17.6 °F 9.3 °F 15.8 °F 93% 29.85 in 10.0 mi West 5.8 mph - N/A   Overcast
5:55 AM 17.6 °F 9.3 °F 15.8 °F 93% 29.85 in 10.0 mi West 5.8 mph - N/A   Overcast
6:14 AM 17.6 °F 9.3 °F 15.8 °F 93% 29.86 in 10.0 mi West 5.8 mph - N/A   Overcast
6:34 AM 17.6 °F 10.7 °F 15.8 °F 93% 29.86 in 10.0 mi West 4.6 mph - N/A   Overcast
6:55 AM 17.6 °F 9.3 °F 15.8 °F 93% 29.86 in 10.0 mi West 5.8 mph - N/A   Overcast
7:14 AM 17.6 °F 7.3 °F 15.8 °F 93% 29.86 in 10.0 mi WSW 8.1 mph - N/A   Overcast
7:34 AM 17.6 °F 9.3 °F 15.8 °F 93% 29.86 in 10.0 mi West 5.8 mph - N/A   Overcast
7:55 AM 15.8 °F 6.1 °F 14.0 °F 93% 29.86 in 10.0 mi West 6.9 mph - N/A   Overcast
8:14 AM 17.6 °F 10.7 °F 14.0 °F 86% 29.86 in 10.0 mi West 4.6 mph - N/A   Overcast
8:34 AM 15.8 °F 8.6 °F 12.2 °F 86% 29.87 in 10.0 mi West 4.6 mph - N/A   Overcast
8:55 AM 17.6 °F 8.2 °F 12.2 °F 79% 29.87 in 10.0 mi West 6.9 mph - N/A   Overcast
9:14 AM 17.6 °F 9.3 °F 12.2 °F 79% 29.87 in 10.0 mi West 5.8 mph - N/A   Overcast
9:35 AM 17.6 °F 10.7 °F 12.2 °F 79% 29.87 in 10.0 mi West 4.6 mph - N/A   Overcast
9:54 AM 17.6 °F 9.3 °F 12.2 °F 79% 29.87 in 10.0 mi West 5.8 mph - N/A   Overcast
10:14 AM 19.4 °F 11.5 °F 14.0 °F 80% 29.87 in 10.0 mi West 5.8 mph - N/A   Overcast
10:35 AM 19.4 °F 12.8 °F 14.0 °F 80% 29.87 in 10.0 mi West 4.6 mph - N/A   Overcast
10:54 AM 19.4 °F 12.8 °F 15.8 °F 86% 29.87 in 10.0 mi West 4.6 mph - N/A   Overcast
11:14 AM 21.2 °F 13.6 °F 15.8 °F 80% 29.88 in 10.0 mi SSW 5.8 mph - N/A   Overcast
11:34 AM 19.4 °F 11.5 °F 15.8 °F 86% 29.88 in 10.0 mi SW 5.8 mph - N/A   Overcast
11:55 AM 21.2 °F 14.9 °F 15.8 °F 80% 29.88 in 10.0 mi West 4.6 mph - N/A   Overcast
12:14 PM 21.2 °F 13.6 °F 15.8 °F 80% 29.88 in 10.0 mi West 5.8 mph - N/A   Mostly Cloudy
12:35 PM 21.2 °F 12.6 °F 15.8 °F 80% 29.87 in 10.0 mi WSW 6.9 mph - N/A   Scattered Clouds
12:54 PM 21.2 °F 14.9 °F 15.8 °F 80% 29.87 in 10.0 mi West 4.6 mph - N/A   Mostly Cloudy
1:14 PM 21.2 °F 13.6 °F 15.8 °F 80% 29.87 in 10.0 mi WSW 5.8 mph - N/A   Mostly Cloudy
1:35 PM 21.2 °F 13.6 °F 15.8 °F 80% 29.87 in 10.0 mi WSW 5.8 mph - N/A   Overcast
1:54 PM 21.2 °F 14.9 °F 15.8 °F 80% 29.86 in 10.0 mi West 4.6 mph - N/A   Overcast
2:14 PM 23.0 °F 15.8 °F 15.8 °F 74% 29.86 in 10.0 mi West 5.8 mph - N/A   Scattered Clouds
2:35 PM 24.8 °F 17.9 °F 15.8 °F 69% 29.86 in 10.0 mi West 5.8 mph - N/A   Clear
2:54 PM 24.8 °F 19.1 °F 15.8 °F 69% 29.86 in 10.0 mi WSW 4.6 mph - N/A   Clear
3:15 PM 24.8 °F 16.9 °F 15.8 °F 69% 29.85 in 10.0 mi WSW 6.9 mph - N/A   Clear
3:34 PM 24.8 °F 17.9 °F 14.0 °F 64% 29.85 in 10.0 mi West 5.8 mph - N/A   Clear
3:55 PM 23.0 °F 17.0 °F 14.0 °F 68% 29.86 in 10.0 mi WNW 4.6 mph - N/A   Clear
4:14 PM 23.0 °F 15.8 °F 14.0 °F 68% 29.87 in 10.0 mi West 5.8 mph - N/A   Clear
4:34 PM 23.0 °F 18.4 °F 12.2 °F 63% 29.86 in 10.0 mi West 3.5 mph - N/A   Clear
4:55 PM 21.2 °F 14.9 °F 12.2 °F 68% 29.87 in 10.0 mi West 4.6 mph - N/A   Clear
5:14 PM 21.2 °F 16.4 °F 10.4 °F 63% 29.87 in 10.0 mi West 3.5 mph - N/A   Clear
5:35 PM 21.2 °F - 10.4 °F 63% 29.87 in 10.0 mi Calm Calm - N/A   Clear
5:55 PM 19.4 °F - 10.4 °F 68% 29.87 in 10.0 mi Calm Calm - N/A   Clear
6:14 PM 19.4 °F - 10.4 °F 68% 29.87 in 10.0 mi Calm Calm - N/A   Clear
6:55 PM 17.6 °F - 10.4 °F 73% 29.89 in 10.0 mi Calm Calm - N/A   Clear
7:14 PM 14.0 °F - 8.6 °F 79% 29.89 in 10.0 mi Calm Calm - N/A   Clear
7:35 PM 14.0 °F - 10.4 °F 86% 29.89 in 10.0 mi Calm Calm - N/A   Clear
7:54 PM 14.0 °F - 10.4 °F 86% 29.89 in 10.0 mi Calm Calm - N/A   Clear
8:15 PM 10.4 °F - 6.8 °F 85% 29.90 in 10.0 mi Calm Calm - N/A   Clear
8:34 PM 8.6 °F - 6.8 °F 92% 29.90 in 10.0 mi Calm Calm - N/A   Clear
8:54 PM 6.8 °F - 5.0 °F 92% 29.91 in 10.0 mi Calm Calm - N/A   Clear
9:15 PM 6.8 °F - 5.0 °F 92% 29.91 in 10.0 mi Calm Calm - N/A   Clear
9:34 PM 6.8 °F - 5.0 °F 92% 29.92 in 10.0 mi Calm Calm - N/A   Clear
9:54 PM 6.8 °F - 3.2 °F 85% 29.92 in 10.0 mi Calm Calm - N/A   Clear
10:14 PM 5.0 °F - 3.2 °F 92% 29.92 in 10.0 mi Calm Calm - N/A   Clear
10:34 PM 3.2 °F - 1.4 °F 92% 29.93 in 10.0 mi Calm Calm - N/A   Clear
10:55 PM 3.2 °F - 1.4 °F 92% 29.93 in 10.0 mi Calm Calm - N/A   Clear
11:14 PM 3.2 °F - 1.4 °F 92% 29.93 in 10.0 mi Calm Calm - N/A   Clear
11:34 PM 5.0 °F - 3.2 °F 92% 29.92 in 10.0 mi Calm Calm - N/A   Clear
11:55 PM 3.2 °F - -0.4 °F 85% 29.93 in 10.0 mi Calm Calm - N/A   Clear